sat.trackr.live / text

‹ back to catalog

AEHF-1 (USA 214)

NORAD 36868 · 2010-039A

PAYLOAD ACTIVE UNKNOWN

§ Identity

Operator
Country
US
Launch date
2010-08-14
Launch site
AFETR
Launch vehicle
Mass (kg)
RCS (m²)
7.94

Purposes: comms

External: N2YO · Heavens-Above · Gunter

§ Orbital elements

Epoch: 2026-09-19T17:32:59.941248Z

Period
1,436.16 min
Inclination
8.4562°
Eccentricity
0.0003872
Mean motion
1.00267240 rev/d
Perigee alt
35,771.5 km
Apogee alt
35,804.2 km
Semi-major
42,166.0 km
B*
0.0000e+0
RAAN
66.8024°
Arg perigee
114.5852°
Mean anomaly
110.5466°
Rev number
5,460

§ Raw data

AEHF-1 (USA 214)1 36868U 10039A   26262.73124932  .00000146  00000+0  00000+0 0  99922 36868   8.4562  66.8024 0003872 114.5852 110.5466  1.00267240 54600

JSON: /api/v1/satellites/36868 · /tle

For live sub-satellite position, see the globe view (requires WebGL).

§ Visibility from observer

Set your observer location to see the next 7 days of passes ≥ 10°. The values pass through the URL so the page stays shareable.

No JS? Fill the form by hand. The geolocation button needs JavaScript.